Find Starlink 36404

NORAD ID: 67664 Int'l Des: 2026-022 Owner: SPXS Country: US Constellation: starlink operational
LEOCIRCULARRETROGRADE

Aktuelle Ansicht

3D-Globus wird geladen...

Über Starlink 36404

Beschreibung wird geladen...

Nächste Überflüge

Passes for default location (London). Set your location on the main map for personalized predictions.

Höhenverlauf

Loading altitude history...

Zweizeiliger Elementsatz

1 67664U 26022S 26146.04707531 .00026689 00000-0 82568-3 0 9990
2 67664 97.2841 179.2255 0001441 100.8875 259.2530 15.33460945 17422
Epoch: 26. Mai 2026 • Age: 14 hours

Aktueller Status

Höhe 470.2 km
Geschwindigkeit 7.63 km/s
Subsatellitenpunkt 37.75°N, 59.11°E
Startdatum 2. Feb. 2026
Alter 0.3 years
Typ internet

Technische Details

Klassifizierung Payload
Masse 575.00 kg
Trockenmasse 530.00 kg
Gesamtmasse 575.00 kg
Länge 0.30 m
Durchmesser 4.10 m
Spannweite 29.00 m
Form Box + pan
Hersteller SPXS
Bus-Typ Starlink V2MO
Phasenstatus In Orbit
Besitzer/Staat SPXS/US

Most Searched